Updated20/11/2018 01:00 
 

GeoURL
free counters
Scottish Weather Network UK Weather Network Cumulus Top Weather Sites

Peebles Weather - Contact

Raw Data, Raw Data Expanded

Ignore low humidity and Dew Point values. Something wrong with the sensor.
Daytime temperatures are in direct sunlight so may be higher than official air temperature values.
As with any other website, we log your IP address and browser type in the server logs for diagnostic reasons. Cookies are used to record visit time and gauges preferences. No personal information is stored or processed.

All times are in BST (UTC+1) unless specified.

2018/11/20 00:50 EGPH 200050Z 07009KT 9999 -RA BKN021TCU 06/04 Q1026
5.2°C 0.0 mm 0.0 mm 0.3 mm 7.1 mph 13.0 mph 1021.1 hPa 80% X-Ray Solar Flare Level
Planetary K-Index
Planetary K-Index History
Station Warn Rain Snow Flood Wind Ltng Heat Cold Glob Moon Temp Rain 1h Rain Tue Rain 24h Wind 10m Gust Pressure Hum Proton Levels

0.488 m Waxing Gibbous Cold F2-NNE F: A: Kp:0 SSN:0

Contact

Feel free to contact me using the contact form or by emailing: wx at askewonline dot co dot uk (address obfuscated for anti-spam reasons).

Comments or questions are welcome.

Contact Form
*(denotes required field)

Powered by Fast Secure Contact Form - PHP

 

XHTML 1.1 | CSS